Temp
57 59 62 65 66 66 66 66 67 67 66 66 65 65 65 63 62 63 62 62 62 62
58 57 58 60 63 66 66 67 66 65 64 65 65 64 64 63 62 62 62 62 62 62
55 57 58 58 59 61 64 64 64 64 63 64 64 64 63 63 63 62 62 62 61 61
50 53 56 57 58 59 60 62 62 63 63 63 63 63 63 62 62 61 61 61 60 60
47 49 51 53 56 57 56 58 60 61 61 61 61 62 62 62 61 60 60 60 60 60
43 45 45 47 51 53 54 55 57 57 58 59 60 61 61 61 61 61 60 61 60 60
41 41 39 41 44 46 49 50 53 54 55 56 58 58 59 60 60 60 60 60 60 59
40 40 39 38 39 40 42 44 47 48 50 51 52 53 50 55 58 58 58 58 58 58
37 36 36 37 37 38 38 41 41 43 44 44 47 44 42 42 47 50 51 54 53 53
33 30 32 34 36 36 38 40 41 41 42 42 42 42 42 40 42 45 48 47 46 43
26 26 28 30 33 35 37 38 39 40 42 41 41 41 41 40 41 42 42 42 42 41
23 24 25 26 30 33 34 36 37 38 38 37 37 40 40 40 37 36 37 37 37 39
22 22 22 24 27 31 34 34 35 35 36 35 35 37 39 39 35 34 34 34 35 34
20 19 21 23 27 29 33 34 34 35 35 34 34 35 38 40 35 35 34 34 33 33
MSLP
1013.57 1013.26 1012.71 1012.01 1011.56 1011.20 1011.07 1010.94 1010.90 1011.05 1011.31 1011.33 1011.42 1011.65 1011.96 1012.09 1012.17 1012.33 1012.39 1012.53 1012.61 1012.65
1013.89 1013.39 1012.83 1012.12 1011.50 1010.85 1010.39 1010.11 1010.07 1010.03 1010.14 1010.25 1010.34 1010.53 1010.77 1010.84 1011.00 1011.20 1011.31 1011.33 1011.52 1011.56
1014.40 1013.57 1012.92 1012.22 1011.59 1010.95 1010.19 1009.74 1009.52 1009.36 1009.31 1009.30 1009.38 1009.45 1009.58 1009.61 1009.78 1009.94 1010.05 1010.16 1010.38 1010.53
1015.00 1014.07 1013.06 1012.46 1011.73 1011.08 1010.32 1009.65 1009.17 1008.79 1008.59 1008.41 1008.43 1008.46 1008.49 1008.47 1008.60 1008.70 1008.80 1008.95 1009.06 1009.14
1015.98 1015.02 1014.02 1013.07 1012.12 1011.22 1010.60 1009.84 1009.07 1008.45 1008.07 1007.84 1007.65 1007.59 1007.53 1007.50 1007.57 1007.62 1007.64 1007.72 1007.89 1007.85
1016.59 1015.79 1015.27 1014.15 1012.97 1011.92 1010.99 1010.12 1009.16 1008.40 1007.85 1007.47 1007.11 1006.79 1006.58 1006.53 1006.58 1006.61 1006.58 1006.55 1006.65 1006.73
1016.98 1016.49 1015.93 1015.00 1013.80 1012.73 1011.61 1010.54 1009.67 1008.81 1008.16 1007.57 1007.03 1006.61 1006.30 1006.10 1005.91 1005.85 1005.75 1005.73 1005.74 1005.78
1017.59 1017.09 1016.22 1015.36 1014.49 1013.44 1012.34 1010.98 1010.13 1009.29 1008.32 1007.67 1007.31 1006.94 1006.72 1006.09 1005.58 1005.45 1005.29 1005.13 1005.11 1005.17
1018.21 1017.46 1016.69 1015.59 1014.71 1013.66 1012.64 1011.30 1010.43 1009.52 1008.86 1008.05 1007.24 1006.99 1006.93 1006.69 1006.15 1005.62 1005.25 1005.01 1004.88 1004.81
1018.68 1018.11 1016.98 1015.84 1014.86 1013.69 1012.63 1011.47 1010.60 1009.72 1008.92 1008.31 1007.71 1007.03 1006.79 1006.63 1006.23 1005.77 1005.39 1005.09 1005.02 1005.00
1019.26 1018.57 1017.48 1016.21 1014.84 1013.49 1012.29 1011.49 1010.45 1009.45 1008.64 1007.98 1007.48 1006.99 1006.67 1006.42 1005.95 1005.49 1005.24 1005.02 1004.83 1004.83
1019.99 1018.69 1017.52 1016.21 1014.71 1013.50 1012.24 1011.21 1010.21 1009.25 1008.54 1007.94 1007.35 1006.97 1006.66 1006.39 1006.11 1005.59 1005.14 1005.01 1004.80 1004.64
1020.31 1019.03 1017.76 1016.40 1014.86 1013.17 1011.94 1010.74 1009.90 1008.89 1008.20 1007.57 1007.21 1006.80 1006.43 1006.11 1005.98 1005.72 1005.38 1005.13 1004.87 1004.73
1020.30 1019.09 1017.90 1016.11 1014.58 1012.92 1011.28 1010.13 1009.28 1008.42 1007.52 1007.00 1006.77 1006.47 1006.08 1005.72 1005.62 1005.42 1005.11 1004.96 1004.82 1004.57
Wind_Speed
6 4 7 10 10 10 10 11 13 13 14 16 16 15 15 12 13 15 14 19 16 13
10 9 8 10 10 9 11 10 12 12 14 16 16 17 16 13 15 15 14 15 16 14
13 12 11 9 10 11 11 10 12 12 12 14 16 16 17 14 15 16 13 12 15 14
16 15 13 11 10 10 11 11 11 13 13 14 14 15 16 16 16 17 16 16 15 16
15 16 16 15 15 13 12 11 11 11 11 12 13 13 15 16 14 16 17 17 16 17
14 15 17 18 17 16 15 13 11 9 9 10 11 12 13 14 15 16 17 17 16 16
16 17 16 18 18 17 15 14 12 9 9 8 7 7 8 10 12 13 13 14 14 14
15 16 16 18 19 17 17 14 12 12 9 7 7 5 7 7 10 11 12 11 11 13
15 17 16 16 19 19 18 16 13 13 13 11 6 5 7 6 6 7 6 9 8 9
15 17 16 17 17 17 16 16 16 15 13 13 11 9 10 10 6 7 8 7 6 5
17 17 17 17 16 16 14 14 14 16 14 12 9 12 12 12 7 6 6 6 6 6
18 19 19 18 17 16 15 14 13 12 12 10 9 13 13 10 6 6 7 5 5 5
18 18 19 19 18 15 14 15 12 12 11 10 10 11 12 10 3 6 4 4 5 6
18 18 18 19 17 17 15 14 13 13 10 8 7 9 13 13 5 6 5 4 3 3
Wind_Direction
305 284 283 275 267 256 241 238 230 227 225 226 226 226 227 225 223 225 228 229 229 233
331 321 302 293 287 275 255 247 242 227 222 224 225 224 224 225 227 227 228 231 232 233
330 326 320 307 295 291 280 255 245 235 227 226 226 227 224 225 227 227 226 227 230 231
337 333 330 324 316 307 300 283 256 247 240 234 231 228 228 228 227 223 225 225 226 228
338 339 338 333 327 329 318 304 279 260 249 242 236 232 231 232 226 228 225 225 226 229
343 344 340 333 329 328 325 320 313 285 266 258 247 240 233 230 231 230 230 229 228 229
341 343 336 331 331 328 325 318 316 314 314 310 298 267 249 238 236 236 235 235 233 231
332 335 332 331 328 324 318 314 309 309 304 303 304 315 319 287 246 236 239 237 233 233
329 332 327 326 325 323 320 316 312 311 308 305 294 300 307 299 292 291 278 257 240 238
329 323 321 320 317 316 313 315 310 306 304 298 296 296 296 290 272 270 270 260 253 251
327 318 316 314 310 310 309 305 302 301 297 294 292 286 281 285 277 268 263 262 247 225
321 316 316 310 309 306 301 299 294 289 287 281 282 282 275 279 278 267 258 261 260 235
313 311 308 304 301 300 293 292 291 284 276 271 276 279 277 275 260 268 257 257 258 243
311 308 300 299 299 298 294 292 287 281 275 264 262 277 279 276 257 250 245 236 243 238